Location: Baix
(44.7118°N, 4.7648°E)
Time: 10:31:49
(UTC+00:00)

Vanguard 2 Rocket - Pass Details

Date: 02 December 2020
Orbit: 554 x 3325 km, 32.9° (Epoch: 21 January)

Event Time Altitude Azimuth Distance (km) Brightness Sun altitude
Rises 05:27:58 0° 218° (SW) 6,480 11.0 -15.7°
Reaches altitude 10° 05:32:22 10° 211° (SSW) 5,751 10.8 -15.0°
Maximum altitude 05:48:55 39° 151° (SSE) 4,306 10.7 -12.2°
Drops below altitude 10° 06:05:45 10° 91° (E) 5,887 12.3 -9.4°
Sets 06:10:16 0° 85° (E) 6,645 12.5 -8.6°
